DW5852 Weather Reports


Display with metric or nautical units.
time (UTC)temp
F
wind
direction
speed
MPH
gust
MPH
rain 1hr
in
rain 24hr
in
rain mn
in
humidity
%
barometer
mb
20260903065732 65 0 0.0 0.0 0.00 0.00 0.00 37 1037.5
20260903065232 66 0 0.0 0.0 0.00 0.00 0.00 36 1037.5
20260903064735 66 128 0.0 0.0 0.00 0.00 0.00 36 1037.6
20260903064232 66 139 0.0 0.0 0.00 0.00 0.00 36 1037.7
20260903063732 66 136 0.0 0.0 0.00 0.00 0.00 36 1037.7
20260903063232 66 148 0.0 5.0 0.00 0.00 0.00 36 1037.6
20260903062735 66 105 0.0 5.0 0.00 0.00 0.00 36 1037.6
20260903062235 66 104 0.0 0.0 0.00 0.00 0.00 36 1037.6
20260903061732 66 89 0.0 0.0 0.00 0.00 0.00 35 1037.6
20260903061232 67 147 0.0 0.0 0.00 0.00 0.00 35 1037.7
20260903060735 67 150 0.0 0.0 0.00 0.00 0.00 34 1037.6
20260903060232 69 276 0.0 0.0 0.00 0.00 0.00 33 1037.6
20260903055732 69 274 0.0 0.0 0.00 0.00 0.00 32 1037.6
20260903055236 69 268 0.0 0.0 0.00 0.00 0.00 32 1037.6
20260903054732 69 256 0.0 0.0 0.00 0.00 0.00 32 1037.6
20260903054232 70 269 0.0 0.0 0.00 0.00 0.00 32 1037.5
20260903053732 70 256 0.0 5.0 0.00 0.00 0.00 32 1037.5
20260903053235 70 258 5.0 9.0 0.00 0.00 0.00 32 1037.5
20260903052735 70 261 0.0 8.0 0.00 0.00 0.00 32 1037.5
20260903052232 69 271 0.0 5.0 0.00 0.00 0.00 32 1037.6
20260903051732 69 242 1.0 4.0 0.00 0.00 0.00 32 1037.5
20260903051235 69 226 0.0 5.0 0.00 0.00 0.00 32 1037.5
20260903050732 69 271 0.0 1.0 0.00 0.00 0.00 32 1037.6
20260903050232 69 256 0.0 5.0 0.00 0.00 0.00 32 1037.7
20260903045735 69 266 0.0 5.0 0.00 0.00 0.00 33 1037.7
20260903045235 69 276 0.0 6.0 0.00 0.00 0.00 33 1037.7
20260903044735 69 222 0.0 7.0 0.00 0.00 0.00 33 1037.7
20260903044235 69 229 0.0 0.0 0.00 0.00 0.00 33 1037.8
20260903043732 69 235 0.0 1.0 0.00 0.00 0.00 33 1037.8
20260903043235 69 258 0.0 0.0 0.00 0.00 0.00 33 1037.9
20260903042732 69 248 0.0 0.0 0.00 0.00 0.00 33 1037.9
20260903042235 69 239 0.0 0.0 0.00 0.00 0.00 33 1037.8
20260903041735 69 225 0.0 0.0 0.00 0.00 0.00 33 1037.8
20260903041235 69 241 0.0 0.0 0.00 0.00 0.00 33 1037.9
20260903040732 70 251 0.0 4.0 0.00 0.00 0.00 32 1037.9
20260903040232 70 235 0.0 4.0 0.00 0.00 0.00 32 1037.9
20260903035735 70 256 0.0 6.0 0.00 0.00 0.00 32 1037.8
20260903035235 70 232 0.0 3.0 0.00 0.00 0.00 31 1037.8
20260903034735 70 271 0.0 3.0 0.00 0.00 0.00 31 1037.9
20260903034235 70 239 0.0 5.0 0.00 0.00 0.00 31 1037.8
20260903033735 70 242 0.0 8.0 0.00 0.00 0.00 31 1037.8
20260903033235 70 235 0.0 0.0 0.00 0.00 0.00 31 1037.8
20260903032732 70 250 0.0 0.0 0.00 0.00 0.00 30 1037.8
20260903032235 70 217 0.0 0.0 0.00 0.00 0.00 30 1037.7
20260903031735 70 263 0.0 0.0 0.00 0.00 0.00 30 1037.7
20260903031232 70 268 0.0 0.0 0.00 0.00 0.00 30 1037.7
20260903030735 70 250 0.0 0.0 0.00 0.00 0.00 30 1037.7
20260903030232 70 250 0.0 0.0 0.00 0.00 0.00 29 1037.5
20260903025735 70 258 0.0 0.0 0.00 0.00 0.00 29 1037.5
20260903025235 71 246 0.0 0.0 0.00 0.00 0.00 29 1037.4
20260903024732 71 253 0.0 0.0 0.00 0.00 0.00 29 1037.3
20260903024232 71 243 0.0 0.0 0.00 0.00 0.00 29 1037.3
20260903023732 71 256 0.0 0.0 0.00 0.00 0.00 29 1037.2
20260903023235 71 249 0.0 0.0 0.00 0.00 0.00 29 1037.2
20260903022732 71 261 0.0 0.0 0.00 0.00 0.00 29 1037.1
20260903022235 71 248 0.0 0.0 0.00 0.00 0.00 28 1037.0
20260903021735 72 255 0.0 0.0 0.00 0.00 0.00 28 1036.9
20260903021235 72 251 0.0 0.0 0.00 0.00 0.00 28 1036.9
20260903020732 72 251 0.0 0.0 0.00 0.00 0.00 28 1036.8
20260903020235 72 246 0.0 0.0 0.00 0.00 0.00 28 1036.7
20260903015735 72 250 0.0 0.0 0.00 0.00 0.00 29 1036.8
20260903015232 72 255 0.0 0.0 0.00 0.00 0.00 28 1036.6
20260903014735 72 242 0.0 0.0 0.00 0.00 0.00 28 1036.6
20260903014232 73 241 0.0 0.0 0.00 0.00 0.00 28 1036.5
20260903013735 74 259 0.0 0.0 0.00 0.00 0.00 27 1036.4
20260903013232 74 258 0.0 0.0 0.00 0.00 0.00 26 1036.5
20260903012732 75 232 0.0 0.0 0.00 0.00 0.00 26 1036.3
20260903012235 75 235 0.0 0.0 0.00 0.00 0.00 26 1036.3
20260903011735 76 261 0.0 0.0 0.00 0.00 0.00 25 1036.3
20260903011235 76 252 0.0 0.0 0.00 0.00 0.00 25 1036.3
20260903010735 77 250 0.0 0.0 0.00 0.00 0.00 25 1036.2
20260903010235 78 255 0.0 0.0 0.00 0.00 0.00 24 1036.1
20260903005735 79 248 0.0 0.0 0.00 0.00 0.00 24 1036.0
20260903005235 79 248 0.0 0.0 0.00 0.00 0.00 24 1036.1
20260903004732 79 245 0.0 3.0 0.00 0.00 0.00 23 1035.9
20260903004235 79 291 0.0 4.0 0.00 0.00 0.00 23 1035.8
20260903003735 79 252 0.0 8.0 0.00 0.00 0.00 23 1035.8
20260903003235 79 246 0.0 7.0 0.00 0.00 0.00 23 1035.7
20260903002732 80 270 3.0 3.0 0.00 0.00 0.00 24 1035.7
20260903002235 81 258 0.0 1.0 0.00 0.00 0.00 23 1035.5
20260903001735 81 259 0.0 6.0 0.00 0.00 0.00 23 1035.5
20260903001235 81 266 4.0 10.0 0.00 0.00 0.00 23 1035.3
20260903000732 81 210 0.0 0.0 0.00 0.00 0.00 23 1035.4
20260903000235 81 246 0.0 8.0 0.00 0.00 0.00 22 1035.4
20260902235732 81 247 2.0 5.0 0.00 0.00 0.00 22 1035.4
20260902235235 81 333 0.0 0.0 0.00 0.00 0.00 22 1035.3
20260902234732 81 256 0.0 7.0 0.00 0.00 0.00 23 1035.3
20260902234235 81 225 0.0 4.0 0.00 0.00 0.00 23 1035.2
20260902233732 81 316 0.0 12.0 0.00 0.00 0.00 23 1035.1
20260902233232 82 276 0.0 0.0 0.00 0.00 0.00 23 1035.1
20260902232735 82 259 0.0 0.0 0.00 0.00 0.00 23 1035.1
20260902232235 81 276 0.0 2.0 0.00 0.00 0.00 24 1035.1
20260902231735 81 224 0.0 4.0 0.00 0.00 0.00 24 1035.1
20260902231232 80 279 0.0 4.0 0.00 0.00 0.00 25 1035.0
20260902230732 80 300 1.0 4.0 0.00 0.00 0.00 25 1035.0
20260902230232 81 257 0.0 5.0 0.00 0.00 0.00 24 1034.9
20260902225732 81 218 5.0 12.0 0.00 0.00 0.00 24 1034.8
20260902225235 81 258 0.0 4.0 0.00 0.00 0.00 24 1034.7
20260902224735 81 243 0.0 0.0 0.00 0.00 0.00 25 1034.7
20260902224235 80 267 0.0 8.0 0.00 0.00 0.00 25 1034.8
20260902223732 79 256 6.0 9.0 0.00 0.00 0.00 25 1034.7
20260902223232 80 236 5.0 9.0 0.00 0.00 0.00 25 1034.8
20260902222735 81 266 0.0 12.0 0.00 0.00 0.00 24 1034.7
20260902222235 82 250 9.0 10.0 0.00 0.00 0.00 24 1034.6
20260902221732 82 272 0.0 9.0 0.00 0.00 0.00 24 1034.5
20260902221235 82 286 0.0 7.0 0.00 0.00 0.00 24 1034.4
20260902220732 82 259 0.0 8.0 0.00 0.00 0.00 23 1034.4
20260902220235 82 291 0.0 6.0 0.00 0.00 0.00 23 1034.4
20260902215735 83 271 0.0 0.0 0.00 0.00 0.00 23 1034.3
20260902215235 83 194 0.0 5.0 0.00 0.00 0.00 23 1034.4
20260902214735 82 158 0.0 8.0 0.00 0.00 0.00 23 1034.3
20260902214235 82 266 0.0 6.0 0.00 0.00 0.00 24 1034.2
20260902213732 82 215 6.0 10.0 0.00 0.00 0.00 23 1034.3
20260902213232 82 219 2.0 8.0 0.00 0.00 0.00 22 1034.2
20260902212735 82 307 0.0 5.0 0.00 0.00 0.00 24 1034.1
20260902212235 81 223 0.0 10.0 0.00 0.00 0.00 23 1034.2
20260902211732 81 264 0.0 10.0 0.00 0.00 0.00 24 1034.2
20260902211235 81 233 0.0 11.0 0.00 0.00 0.00 24 1034.1
20260902210732 81 274 2.0 7.0 0.00 0.00 0.00 25 1034.1
20260902210232 80 274 0.0 8.0 0.00 0.00 0.00 24 1034.1
20260902205735 79 258 6.0 11.0 0.00 0.00 0.00 30 1034.0
20260902205235 78 94 0.0 0.0 0.00 0.00 0.00 35 1034.1
20260902204732 77 83 0.0 0.0 0.00 0.00 0.00 37 1034.2
20260902204235 77 85 0.0 0.0 0.00 0.00 0.00 35 1034.3
20260902203735 77 84 0.0 0.0 0.00 0.00 0.00 36 1034.2
20260902203232 77 58 0.0 0.0 0.00 0.00 0.00 36 1034.2
20260902202735 78 129 0.0 0.0 0.00 0.00 0.00 35 1034.2
20260902202232 79 150 0.0 0.0 0.00 0.00 0.00 32 1034.2
20260902201732 79 169 0.0 0.0 0.00 0.00 0.00 35 1034.1
20260902201235 79 148 0.0 8.0 0.00 0.00 0.00 36 1034.3
20260902200735 77 174 0.0 0.0 0.00 0.00 0.00 37 1034.2
20260902200232 76 85 0.0 0.0 0.00 0.00 0.00 38 1034.3
20260902195735 76 90 0.0 0.0 0.00 0.00 0.00 39 1034.4
20260902195232 75 198 0.0 0.0 0.00 0.00 0.00 41 1034.4
20260902194735 74 125 0.0 0.0 0.00 0.00 0.00 41 1034.3
20260902194232 75 108 0.0 0.0 0.00 0.00 0.00 40 1034.4
20260902193732 74 148 0.0 0.0 0.00 0.00 0.00 41 1034.3
20260902193232 74 159 0.0 0.0 0.00 0.00 0.00 41 1034.4
20260902192735 74 86 0.0 0.0 0.00 0.00 0.00 41 1034.5
20260902192235 74 117 0.0 0.0 0.00 0.00 0.00 42 1034.4
20260902191733 75 101 0.0 7.0 0.00 0.00 0.00 40 1034.5
20260902191232 76 77 0.0 9.0 0.00 0.00 0.00 39 1034.6
20260902190732 76 70 0.0 0.0 0.00 0.00 0.00 40 1034.6
20260902190235 75 50 0.0 0.0 0.00 0.00 0.00 41 1034.7
20260902185732 75 9 0.0 0.0 0.00 0.00 0.00 40 1034.8
20260902185235 75 139 0.0 0.0 0.00 0.00 0.00 42 1034.8
20260902184735 74 173 0.0 0.0 0.00 0.00 0.00 42 1034.8
20260902184235 75 90 0.0 6.0 0.00 0.00 0.00 40 1034.8
20260902183732 77 46 0.0 9.0 0.00 0.00 0.00 39 1034.8
20260902183232 78 151 0.0 0.0 0.00 0.00 0.00 39 1034.9
20260902182735 77 143 0.0 8.0 0.00 0.00 0.00 40 1034.9
20260902182232 78 114 7.0 8.0 0.00 0.00 0.00 39 1035.0
20260902181732 77 188 0.0 7.0 0.00 0.00 0.00 42 1034.9
20260902181232 75 184 0.0 10.0 0.00 0.00 0.00 42 1034.9
20260902180732 75 1 0.0 10.0 0.00 0.00 0.00 42 1034.9
20260902180232 75 352 0.0 0.0 0.00 0.00 0.00 42 1034.9
20260902175735 73 141 0.0 8.0 0.00 0.01 0.00 46 1035.0
20260902175232 72 82 0.0 6.0 0.00 0.01 0.00 47 1034.9
20260902174735 71 125 0.0 0.0 0.00 0.01 0.00 48 1035.0
20260902174235 71 92 0.0 7.0 0.00 0.01 0.00 49 1035.0
20260902173735 72 83 0.0 6.0 0.00 0.01 0.00 47 1035.0
20260902173235 72 74 0.0 7.0 0.00 0.01 0.00 48 1035.0
20260902172732 72 61 0.0 8.0 0.00 0.01 0.00 48 1034.9
20260902172235 72 50 0.0 8.0 0.00 0.01 0.00 48 1035.0
20260902171735 72 82 0.0 9.0 0.00 0.01 0.00 48 1035.0
20260902171235 71 68 3.0 10.0 0.00 0.01 0.00 48 1035.2
20260902170732 72 56 6.0 8.0 0.00 0.01 0.00 49 1035.1
20260902170232 71 49 0.0 9.0 0.00 0.01 0.00 51 1035.1
20260902165732 72 65 0.0 7.0 0.00 0.01 0.00 50 1035.2
20260902165232 73 87 0.0 5.0 0.00 0.01 0.00 49 1035.1
20260902164732 72 154 0.0 0.0 0.00 0.01 0.00 52 1035.1
20260902164235 72 139 0.0 0.0 0.00 0.01 0.00 53 1035.0
20260902163732 72 91 0.0 0.0 0.00 0.01 0.00 53 1035.0
20260902163235 71 61 0.0 0.0 0.00 0.01 0.00 52 1034.9
20260902162735 71 63 0.0 0.0 0.00 0.01 0.00 53 1034.9
20260902162232 71 150 0.0 0.0 0.00 0.01 0.00 54 1034.8
20260902161735 70 107 0.0 0.0 0.00 0.01 0.00 56 1034.7
20260902161235 69 103 0.0 0.0 0.00 0.01 0.00 56 1034.7
20260902160735 68 13 0.0 0.0 0.00 0.01 0.00 56 1034.8
20260902160232 68 305 0.0 0.0 0.00 0.01 0.00 57 1034.7
20260902155732 68 82 0.0 0.0 0.00 0.01 0.00 55 1034.7
20260902155232 69 101 0.0 0.0 0.00 0.01 0.00 55 1034.6
20260902154735 69 3 0.0 0.0 0.00 0.01 0.00 54 1034.6
20260902154235 70 145 0.0 0.0 0.00 0.01 0.00 54 1034.6
20260902153735 70 77 0.0 0.0 0.00 0.01 0.00 55 1034.7
20260902153232 69 38 0.0 0.0 0.00 0.01 0.00 55 1034.7
20260902152735 69 66 0.0 0.0 0.00 0.01 0.00 55 1034.6
20260902152235 68 104 0.0 0.0 0.00 0.01 0.00 55 1034.6
20260902151735 69 89 0.0 0.0 0.00 0.01 0.00 57 1034.6
20260902151235 68 79 0.0 0.0 0.00 0.01 0.00 58 1034.5
20260902150735 67 73 0.0 0.0 0.00 0.01 0.00 57 1034.5
20260902150232 67 18 0.0 0.0 0.00 0.01 0.00 57 1034.5
20260902145735 66 96 0.0 0.0 0.00 0.01 0.00 58 1034.5
20260902145235 66 23 0.0 0.0 0.00 0.01 0.00 60 1034.5
20260902144735 65 68 0.0 0.0 0.00 0.01 0.00 60 1034.5
20260902144235 65 70 0.0 0.0 0.00 0.01 0.00 60 1034.4
20260902143732 65 0 0.0 0.0 0.00 0.01 0.00 61 1034.4
20260902143235 65 5 0.0 0.0 0.00 0.01 0.00 61 1034.3
20260902142735 65 83 0.0 0.0 0.00 0.01 0.00 62 1034.3
20260902142235 64 16 0.0 0.0 0.00 0.01 0.00 62 1034.2
20260902141735 64 89 0.0 0.0 0.00 0.01 0.00 62 1034.2
20260902141235 64 71 0.0 0.0 0.00 0.01 0.00 61 1034.1
20260902140735 64 105 0.0 0.0 0.00 0.01 0.00 62 1034.2
20260902140232 63 78 0.0 0.0 0.00 0.01 0.00 62 1034.1
20260902135732 63 75 0.0 0.0 0.00 0.01 0.00 61 1034.1
20260902135235 63 86 0.0 4.0 0.00 0.01 0.00 60 1033.9
20260902134735 63 128 0.0 0.0 0.00 0.01 0.00 59 1034.0
20260902134235 63 10 0.0 0.0 0.00 0.01 0.00 59 1034.0
20260902133735 63 72 0.0 0.0 0.00 0.01 0.00 61 1033.8
20260902133235 63 356 0.0 0.0 0.00 0.01 0.00 60 1033.8
20260902132732 62 340 0.0 0.0 0.00 0.01 0.00 60 1033.8
20260902132232 62 66 0.0 0.0 0.00 0.01 0.00 63 1033.8
20260902131732 61 269 0.0 0.0 0.00 0.01 0.00 64 1033.8
20260902131235 60 270 0.0 0.0 0.00 0.01 0.00 67 1033.7
20260902130735 59 270 0.0 0.0 0.00 0.01 0.00 69 1033.9
20260902130235 58 270 0.0 0.0 0.00 0.01 0.00 71 1033.8
20260902125735 57 270 0.0 0.0 0.00 0.01 0.00 72 1033.9
20260902125232 57 270 0.0 0.0 0.00 0.01 0.00 72 1033.9
20260902124732 57 172 0.0 0.0 0.00 0.01 0.00 71 1033.9
20260902124232 58 145 0.0 0.0 0.00 0.01 0.00 70 1033.9
20260902123732 58 145 0.0 0.0 0.00 0.01 0.00 69 1034.0
20260902123235 58 145 0.0 0.0 0.00 0.02 0.00 70 1033.9
20260902122735 58 145 0.0 0.0 0.00 0.02 0.00 70 1033.9
20260902122232 58 145 0.0 0.0 0.00 0.02 0.00 69 1033.9
20260902121735 58 253 0.0 0.0 0.00 0.02 0.00 70 1033.9
20260902121232 58 253 0.0 0.0 0.00 0.02 0.00 70 1033.9
20260902120735 59 253 0.0 0.0 0.00 0.02 0.00 69 1034.0
20260902120232 59 253 0.0 0.0 0.00 0.02 0.00 68 1034.0
20260902115732 60 253 0.0 0.0 0.00 0.02 0.00 68 1034.1
20260902115232 60 253 0.0 0.0 0.00 0.02 0.00 67 1034.0
20260902114732 60 253 0.0 0.0 0.00 0.03 0.00 67 1034.1
20260902114235 60 253 0.0 0.0 0.00 0.03 0.00 66 1034.2
20260902113732 61 253 0.0 0.0 0.00 0.03 0.00 63 1034.2
20260902113232 61 253 0.0 0.0 0.00 0.03 0.00 60 1034.3
20260902112735 62 253 0.0 0.0 0.00 0.03 0.00 59 1034.3
20260902112232 62 253 0.0 0.0 0.00 0.03 0.00 58 1034.3
20260902111735 62 253 0.0 0.0 0.00 0.03 0.00 58 1034.3
20260902111235 62 253 0.0 0.0 0.00 0.03 0.00 59 1034.4
20260902110735 62 253 0.0 0.0 0.00 0.03 0.00 58 1034.5
20260902110232 62 253 0.0 0.0 0.00 0.04 0.00 58 1034.6
20260902105735 62 253 0.0 0.0 0.00 0.04 0.00 59 1034.6
20260902105232 62 253 0.0 0.0 0.00 0.04 0.00 60 1034.5
20260902104735 61 253 0.0 0.0 0.00 0.04 0.00 60 1034.6
20260902104235 61 253 0.0 0.0 0.00 0.04 0.00 60 1034.6
20260902103732 61 253 0.0 0.0 0.00 0.04 0.00 60 1034.5
20260902103235 61 253 0.0 0.0 0.00 0.04 0.00 60 1034.6
20260902102735 61 253 0.0 0.0 0.00 0.04 0.00 61 1034.6
20260902102232 61 253 0.0 0.0 0.00 0.04 0.00 61 1034.6
20260902101735 61 253 0.0 0.0 0.00 0.04 0.00 61 1034.7
20260902101235 61 253 0.0 0.0 0.00 0.04 0.00 61 1034.7
20260902100732 61 253 0.0 0.0 0.00 0.04 0.00 62 1034.8
20260902100235 61 253 0.0 0.0 0.00 0.04 0.00 62 1034.8
20260902095732 61 251 0.0 0.0 0.00 0.04 0.00 62 1034.9
20260902095232 60 252 0.0 0.0 0.00 0.04 0.00 62 1034.9
20260902094732 60 255 0.0 0.0 0.00 0.04 0.00 62 1035.0
20260902094232 60 258 0.0 0.0 0.00 0.04 0.00 63 1035.0
20260902093735 60 258 0.0 0.0 0.00 0.04 0.00 63 1035.2
20260902093235 60 259 0.0 0.0 0.00 0.04 0.00 63 1035.3
20260902092735 61 287 0.0 0.0 0.00 0.04 0.00 62 1035.3
20260902092232 61 354 0.0 0.0 0.00 0.04 0.00 62 1035.3
20260902091732 60 354 0.0 0.0 0.00 0.04 0.00 62 1035.4
20260902091232 59 354 0.0 0.0 0.00 0.04 0.00 64 1035.5
20260902090735 60 354 0.0 0.0 0.00 0.04 0.00 65 1035.5
20260902090232 60 354 0.0 0.0 0.00 0.04 0.00 64 1035.5
20260902085735 61 354 0.0 0.0 0.00 0.04 0.00 62 1035.6
20260902085232 61 354 0.0 0.0 0.00 0.04 0.00 62 1035.6
20260902084735 60 354 0.0 0.0 0.00 0.04 0.00 63 1035.6
20260902084232 61 101 0.0 0.0 0.00 0.04 0.00 65 1035.7
20260902083732 61 102 0.0 0.0 0.00 0.04 0.00 65 1035.6
20260902083235 61 101 0.0 0.0 0.00 0.04 0.00 64 1035.6
20260902082735 61 124 0.0 0.0 0.00 0.04 0.00 64 1035.6
20260902082232 62 124 0.0 0.0 0.00 0.04 0.00 63 1035.6
20260902081732 62 148 0.0 0.0 0.00 0.04 0.00 62 1035.7
20260902081235 63 150 0.0 0.0 0.00 0.04 0.00 61 1035.8
20260902080735 63 98 0.0 0.0 0.00 0.04 0.00 60 1035.9
20260902080235 63 98 0.0 0.0 0.00 0.04 0.00 59 1035.9
20260902075732 63 98 0.0 0.0 0.00 0.04 0.00 57 1036.0
20260902075235 63 99 0.0 0.0 0.00 0.04 0.00 58 1036.1
20260902074735 63 262 0.0 0.0 0.00 0.04 0.00 54 1036.1
20260902074232 63 261 0.0 0.0 0.00 0.04 0.00 57 1036.1
20260902073735 62 262 0.0 0.0 0.00 0.04 0.00 59 1036.2
20260902073235 61 262 0.0 0.0 0.00 0.04 0.00 62 1036.2
20260902072735 61 261 0.0 0.0 0.00 0.04 0.00 62 1036.2
20260902072235 62 262 0.0 0.0 0.00 0.04 0.00 61 1036.3
20260902071735 62 262 0.0 0.0 0.00 0.04 0.00 60 1036.3
20260902071232 63 262 0.0 0.0 0.00 0.04 0.00 59 1036.4
20260902070735 63 262 0.0 0.0 0.00 0.04 0.00 58 1036.4
20260902070232 64 262 0.0 0.0 0.00 0.04 0.00 56 1036.4